Content
SEND FEEDBACK

Daily
Averages
Monthly
Summary
United States of America

MERIZO, GUAM


Home > North America > United States > Guam
Elevation: 10 feet     Latitude: 13 14N     Longitude: 144 39E

WEATHER
 
SELECT A DAY
Number of Records: 350,245;   Date Range: 1/1/95 - 9/30/14
 
SHARE

PRINT THIS DATA

[ ← Previous Day ]
WEATHER ALMANAC - MARCH 22, 2014
[ Next Day → ]
[ °C ]   °F
Weather ElementAverageHighLow
Temperature78.6 °F83.1 °F (11:58 am)76.6 °F (3:58 am)
Dewpoint72.1 °F73.4 °F (2:03 am)70.7 °F (6:58 am)
Humidity80.3 %89 % (2:03 am)67 % (11:58 am)
Barometer29.89 in29.93 in (8:13 am)29.81 in (3:58 am)
Wind Speed15.6 mph21.9 mph (9:58 pm)
Wind Gust27.6 mph (10:03 pm)
Weather ElementAverage
Visibility10 mi
Wind DirectionENE (69.8 °)

Weather ElementTotal
Precipitation0.01 in
Cooling Degree Days14.9 (Base 65)
Growing Degree Days29.9 (Base 50)
Averaged from 54 records on March 22, 2014
WEATHER CONDITIONS BREAKOUT
WIND DIRECTION BREAKOUT
WEATHER BY HOUR - MARCH 22, 2014
[ °C ]   °F
Local TimeTemperatureDewpointHumidityBarometerVisibilityWind DirectionWind SpeedGust SpeedPrecipitationEventsConditions
1:58 AM77.0 °F72.3 °F85 %29.83 in10.0 miENE (70°)10.4 mphMostly Cloudy
2:03 AM77.0 °F73.4 °F89 %29.86 in10.0 miEast (80°)11.5 mphMostly Cloudy
2:18 AM77.0 °F71.6 °F83 %29.86 in10.0 miEast (80°)10.4 mphScattered Clouds
2:58 AM76.8 °F72.0 °F85 %29.82 in10.0 miEast (80°)10.4 mphPartly Cloudy
3:58 AM76.6 °F72.7 °F87 %29.81 in10.0 miEast (80°)10.4 mphPartly Cloudy
4:15 AM77.0 °F73.4 °F89 %29.85 in10.0 miENE (70°)9.2 mphRainLight Rain
4:28 AM77.0 °F73.4 °F89 %29.85 in10.0 miENE (70°)10.4 mphScattered Clouds
4:58 AM76.8 °F72.5 °F86 %29.82 in10.0 miENE (70°)11.5 mph0.01 inMostly Cloudy
5:18 AM77.0 °F71.6 °F83 %29.86 in10.0 miENE (70°)13.8 mphMostly Cloudy
5:38 AM77.0 °F71.6 °F83 %29.86 in10.0 miENE (70°)12.7 mphMostly Cloudy
5:58 AM76.8 °F71.4 °F83 %29.84 in10.0 miENE (70°)12.7 mphMostly Cloudy
6:58 AM77.0 °F70.7 °F81 %29.86 in10.0 miENE (70°)12.7 mphScattered Clouds
7:48 AM78.8 °F71.6 °F78 %29.91 in10.0 miENE (70°)12.7 mphMostly Cloudy
7:58 AM78.4 °F71.6 °F79 %29.89 in10.0 miENE (70°)13.8 mphScattered Clouds
8:13 AM78.8 °F71.6 °F78 %29.93 in10.0 miENE (70°)15.0 mphMostly Cloudy
8:23 AM78.8 °F71.6 °F78 %29.93 in10.0 miENE (70°)13.8 mphMostly Cloudy
8:58 AM80.4 °F71.2 °F73 %29.91 in10.0 miEast (80°)13.8 mphClear
9:58 AM82.2 °F71.8 °F71 %29.92 in10.0 miEast (90°)15.0 mphPartly Cloudy
10:58 AM82.6 °F72.9 °F72 %29.91 in10.0 miENE (70°)13.8 mphPartly Cloudy
11:58 AM83.1 °F71.2 °F67 %29.89 in10.0 miEast (80°)16.1 mphPartly Cloudy
12:58 PM83.1 °F72.1 °F69 %29.86 in10.0 miEast (80°)15.0 mphPartly Cloudy
1:58 PM82.9 °F72.0 °F69 %29.84 in10.0 miEast (90°)16.1 mphPartly Cloudy
2:58 PM82.4 °F72.0 °F71 %29.82 in10.0 miEast (90°)13.8 mphClear
3:58 PM81.9 °F72.0 °F72 %29.82 in10.0 miEast (80°)15.0 mphClear
4:58 PM80.4 °F72.5 °F77 %29.84 in10.0 miENE (70°)15.0 mphScattered Clouds
5:03 PM80.6 °F71.6 °F74 %29.87 in10.0 miEast (80°)13.8 mphMostly Cloudy
5:13 PM80.6 °F71.6 °F74 %29.87 in10.0 miENE (70°)12.7 mphScattered Clouds
5:58 PM79.5 °F71.6 °F77 %29.86 in10.0 miENE (60°)13.8 mphScattered Clouds
6:58 PM78.4 °F71.6 °F79 %29.86 in10.0 miENE (60°)16.1 mphPartly Cloudy
7:33 PM78.8 °F71.6 °F78 %29.89 in10.0 miENE (60°)16.1 mphMostly Cloudy
7:58 PM78.6 °F71.4 °F78 %29.87 in10.0 miENE (60°)17.3 mphMostly Cloudy
8:03 PM78.8 °F71.6 °F78 %29.89 in10.0 miENE (60°)16.1 mphScattered Clouds
8:58 PM77.7 °F72.3 °F83 %29.88 in10.0 miENE (60°)17.3 mphPartly Cloudy
9:23 PM78.8 °F73.4 °F83 %29.92 in10.0 miENE (60°)19.6 mphMostly Cloudy
9:33 PM78.8 °F73.4 °F83 %29.92 in10.0 miENE (60°)17.3 mph25.3 mphMostly Cloudy
9:38 PM78.8 °F73.4 °F83 %29.92 in10.0 miENE (60°)16.1 mphMostly Cloudy
9:43 PM78.8 °F73.4 °F83 %29.92 in10.0 miENE (70°)19.6 mphMostly Cloudy
9:48 PM78.8 °F73.4 °F83 %29.92 in10.0 miENE (60°)19.6 mph25.3 mphMostly Cloudy
9:53 PM78.8 °F73.4 °F83 %29.92 in10.0 miENE (70°)19.6 mph25.3 mphMostly Cloudy
9:58 PM78.1 °F72.7 °F83 %29.89 in10.0 miENE (70°)21.9 mph25.3 mphScattered Clouds
10:03 PM78.8 °F71.6 °F78 %29.92 in10.0 miENE (70°)20.7 mph27.6 mphMostly Cloudy
10:08 PM78.8 °F71.6 °F78 %29.92 in10.0 miENE (70°)18.4 mph27.6 mphMostly Cloudy
10:13 PM78.8 °F71.6 °F78 %29.92 in10.0 miENE (70°)20.7 mph25.3 mphMostly Cloudy
10:28 PM77.0 °F71.6 °F83 %29.92 in10.0 miENE (60°)18.4 mphMostly Cloudy
10:33 PM77.0 °F71.6 °F83 %29.92 in10.0 miENE (70°)20.7 mphMostly Cloudy
10:38 PM77.0 °F71.6 °F83 %29.92 in10.0 miENE (70°)18.4 mphScattered Clouds
10:58 PM77.7 °F72.5 °F84 %29.89 in10.0 miENE (70°)18.4 mph25.3 mphScattered Clouds
11:08 PM77.0 °F71.6 °F83 %29.92 in10.0 miENE (60°)19.6 mphMostly Cloudy
11:13 PM77.0 °F71.6 °F83 %29.92 in10.0 miENE (70°)18.4 mphScattered Clouds
11:28 PM77.0 °F71.6 °F83 %29.92 in10.0 miENE (60°)18.4 mphMostly Cloudy
11:38 PM77.0 °F73.4 °F89 %29.92 in10.0 miENE (70°)18.4 mphMostly Cloudy
11:48 PM77.0 °F71.6 °F83 %29.92 in10.0 miENE (60°)17.3 mphScattered Clouds
11:53 PM77.0 °F71.6 °F83 %29.92 in10.0 miENE (60°)16.1 mphScattered Clouds
11:58 PM77.4 °F72.3 °F84 %29.89 in10.0 miENE (60°)17.3 mphScattered Clouds
Hourly data recorded from PGUA, located miles away from Merizo, Guam







STORIES FROM OUR PARTNERS